WE3C Weather Reports


Display with metric or nautical units.
time (UTC)temp
F
wind
direction
speed
MPH
gust
MPH
rain 1hr
in
rain 24hr
in
rain mn
in
humidity
%
barometer
mb
20260506211559 63 213 0.0 0.0 0.00 0.00 0.00 78 1011.2
20260506204558 62 360 0.0 0.0 0.00 0.00 0.00 76 1011.1
20260506203120 61 229 0.0 0.0 0.00 0.00 0.00 74 1011.2
20260506201556 61 207 0.0 0.0 0.00 0.00 0.00 74 1011.2
20260506200058 61 213 0.0 0.0 0.00 0.00 0.00 73 1011.2
20260506194600 61 360 0.0 0.0 0.00 0.00 0.00 72 1011.1
20260506193104 61 210 0.0 0.0 0.00 0.00 0.00 69 1011.2
20260506191553 60 207 0.0 0.0 0.00 0.00 0.00 67 1011.4
20260506190053 59 198 0.0 0.0 0.00 0.00 0.00 67 1011.6
20260506184551 59 360 0.0 0.0 0.00 0.00 0.00 68 1011.7
20260506183051 59 360 0.0 0.0 0.00 0.00 0.00 68 1012.0
20260506181549 58 205 0.0 0.0 0.00 0.00 0.00 68 1012.1
20260506180041 58 207 0.0 0.0 0.00 0.00 0.00 68 1012.1
20260506174540 58 214 0.0 0.0 0.00 0.00 0.00 68 1012.2
20260506173044 58 198 0.0 0.0 0.00 0.00 0.00 68 1012.0
20260506171538 58 157 0.0 0.0 0.00 0.00 0.00 69 1012.0
20260506170044 58 175 0.0 0.0 0.00 0.00 0.00 69 1012.0
20260506164548 58 186 0.0 0.0 0.00 0.00 0.00 69 1012.3
20260506163037 58 360 0.0 0.0 0.00 0.00 0.00 69 1012.3
20260506161532 59 186 0.0 0.0 0.00 0.00 0.00 69 1012.2
20260506160034 59 145 0.0 0.0 0.00 0.00 0.00 70 1011.7
20260506154528 59 360 0.0 0.0 0.00 0.00 0.00 71 1012.4
20260506153027 59 171 0.0 0.0 0.00 0.00 0.00 71 1012.9
20260506151526 59 360 0.0 0.0 0.00 0.00 0.00 72 1013.1
20260506150026 59 188 0.0 0.0 0.00 0.00 0.00 72 1013.0
20260506144528 59 161 0.0 0.0 0.00 0.00 0.00 72 1012.9
20260506143024 59 360 0.0 0.0 0.00 0.00 0.00 73 1012.9
20260506141529 59 360 0.0 0.0 0.00 0.00 0.00 75 1012.8
20260506140022 59 360 0.0 0.0 0.00 0.00 0.00 76 1013.0
20260506134517 60 190 0.0 0.0 0.00 0.00 0.00 77 1013.0
20260506133011 60 182 0.0 0.0 0.00 0.00 0.00 78 1013.0
20260506131512 60 360 0.0 0.0 0.00 0.00 0.00 79 1013.2
20260506130009 60 183 0.0 0.0 0.00 0.00 0.00 79 1013.2
20260506124508 60 360 0.0 0.0 0.00 0.00 0.00 79 1013.3
20260506123007 61 360 0.0 0.0 0.00 0.00 0.00 79 1013.5
20260506121508 62 184 0.0 0.0 0.00 0.00 0.00 79 1013.1
20260506120004 62 188 0.0 0.0 0.00 0.00 0.00 78 1013.0
20260506114559 63 360 0.0 0.0 0.00 0.00 0.00 77 1012.9
20260506113059 63 186 0.0 0.0 0.00 0.00 0.00 76 1012.8
20260506111557 63 360 0.0 0.0 0.00 0.00 0.00 75 1012.8
20260506110112 63 360 0.0 0.0 0.00 0.00 0.00 75 1012.8
20260506104611 63 360 0.0 0.0 0.00 0.00 0.00 75 1012.5
20260506103053 63 360 0.0 0.0 0.00 0.00 0.00 74 1012.5
20260506101553 64 169 0.0 0.0 0.00 0.00 0.00 73 1012.4
20260506100101 64 171 0.0 0.0 0.00 0.00 0.00 73 1012.5
20260506094555 64 182 0.0 0.0 0.00 0.00 0.00 72 1012.6
20260506093047 64 140 0.0 0.0 0.00 0.00 0.00 71 1012.5
20260506091546 65 158 0.0 0.0 0.00 0.00 0.00 70 1012.5
20260506090044 65 185 0.0 0.0 0.00 0.00 0.00 69 1012.4
20260506084613 65 360 0.0 0.0 0.00 0.00 0.00 68 1012.6
20260506083043 65 360 0.0 0.0 0.00 0.00 0.00 67 1012.6
20260506081550 65 171 0.0 0.0 0.00 0.00 0.00 66 1012.6
20260506073034 66 191 0.0 0.0 0.00 0.00 0.00 63 1012.7
20260506071534 66 360 0.0 0.0 0.00 0.00 0.00 62 1012.8
20260506070130 67 163 0.0 0.0 0.00 0.00 0.00 61 1013.0
20260506061521 67 198 0.0 0.0 0.00 0.00 0.00 58 1013.6
20260506044519 68 360 0.0 0.0 0.00 0.00 0.00 54 1014.2
20260506043014 68 191 0.0 0.0 0.00 0.00 0.00 53 1014.2
20260506041512 68 360 0.0 0.0 0.00 0.00 0.00 52 1014.2
20260506040011 68 202 0.0 0.0 0.00 0.00 0.00 52 1014.3
20260506034511 68 193 0.0 0.0 0.00 0.00 0.00 51 1014.0
20260506033012 68 170 0.0 0.0 0.00 0.00 0.00 52 1014.1
20260506031509 68 186 0.0 0.0 0.00 0.00 0.00 52 1014.1
20260506030008 68 360 0.0 0.0 0.00 0.00 0.00 52 1014.1
20260506024510 69 360 0.0 0.0 0.00 0.00 0.00 51 1014.0
20260506023008 69 156 0.0 0.0 0.00 0.00 0.00 51 1014.2
20260506021506 69 155 0.0 0.0 0.00 0.00 0.00 50 1014.4
20260506020005 70 360 0.0 0.0 0.00 0.00 0.00 49 1014.2
20260506014505 70 185 0.0 0.0 0.00 0.00 0.00 48 1014.1
20260506013005 71 167 0.0 0.0 0.00 0.00 0.00 47 1013.9
20260506011506 72 172 0.0 0.0 0.00 0.00 0.00 44 1013.7
20260506010004 73 167 0.0 0.0 0.00 0.00 0.00 42 1013.5
20260506004604 73 191 0.0 0.0 0.00 0.00 0.00 40 1013.3
20260506003024 73 198 0.0 0.0 0.00 0.00 0.00 41 1013.3
20260506001524 73 360 0.0 0.0 0.00 0.00 0.00 41 1013.1
20260506000024 74 172 0.0 0.0 0.00 0.00 0.00 42 1012.9
20260505234524 74 184 0.0 0.0 0.00 0.00 0.00 42 1012.9
20260505233022 75 167 0.0 0.0 0.00 0.00 0.00 41 1012.8
20260505231535 75 186 0.0 0.0 0.00 0.00 0.00 39 1012.8
20260505230025 76 162 0.0 0.0 0.00 0.00 0.00 38 1012.7
20260505224520 76 184 0.0 0.0 0.00 0.00 0.00 37 1012.9
20260505223019 76 173 0.0 0.0 0.00 0.00 0.00 37 1012.4
20260505221519 77 191 0.0 0.0 0.00 0.00 0.00 36 1012.6
20260505220023 78 156 0.0 0.0 0.00 0.00 0.00 36 1012.3
20260505214518 78 160 0.0 0.0 0.00 0.00 0.00 37 1012.4
20260505213027 78 192 0.0 0.0 0.00 0.00 0.00 36 1012.5